STARLINK-31584, 59862

Orbit data source: Space-Track

STARLINK-31584, 59862 is a payload satellite owned by SpaceX/Seattle (US) in LEO that was launched on Fri, 24 May 2024 UTC via an FALCON 9 launch vehicle from the Air Force Eastern Test Range (AFETR). Payload-class satellites include a variety of spacecraft equipped with specific instruments for various scientific and technological missions. These include communications satellites like Starlink; space stations such as the ISS; scientific satellites like the Hubble; Earth observation satellites from companies like Planet Labs, Umbra, and HawkEye 360; GPS; miniature CubeSats for education and research; and military/defense satellites.

Loading next visibility...
Identifier
59862, 2024-098E
Orbit
LEO
Country
Flag of USUS
Related business
Manufacturer
SpaceX/Seattle
Mission
Operational Commercial Communications
Bus & Motor
STARLINK V2M, Unknown motor
Mass
730 kg wet, ~700 kg dry
Launch date (UTC)
2024-05-24 (2 years ago)
Launch vehicle
FALCON 9
Launch site
Air Force Eastern Test Range (AFETR)
Object type
Payload
Rocket body
Debris
Shape & HBR
Box + 2 Pan, 17.7 m
Radar Cross Section
33.884 m², Large (>1 m²)

Expand to show TLE details & history
Last TLE update: 2 days ago

TLE from 2 days ago
0 STARLINK-31584
1 59862U 24098E   26171.38419714 -.00002024  00000-0 -64030-4 0  9994
2 59862  43.0013  57.8929 0001113 293.5188  66.5547 15.27581606117558
Epoch: 2026-06-20T09:13Z
TLE epoch observation values (Epoch: 2026-06-20T09:13:14.632Z)
Latitude
-0.00001°
Longitude
10.98232°
Altitude
482.516 km
Speed
7.626 km/s
True Right ascension
03h 51m 34s
True Declination
0° 00' 00"
Sunlit
Object was in daylight at epoch
Visualization orbit readout
Latitude
Unknown
Longitude
Unknown
Altitude
Unknown
Speed
Unknown
Apparent Right ascension
Unknown
Apparent Declination
Unknown
Sunlit
N/A
Visualization observer readout
Local Sidereal Time
21:24:21
Azimuth
Unknown
Elevation
Unknown
Doppler factor
Unknown
Orbital elements
Apogee altitude
485.753 km
Perigee altitude
484.225 km
Semi-major axis
6,863.126 km
Eccentricity
0.00011
Inclination
43.0013°
RAAN
57.8929°
Arg. of periapsis
293.5188°
True anomaly
66.5664°
Mean anomaly
66.5547°
Eccentric anomaly
66.56055°
Mean motion
3.81733 °/min
Orbital period
94.31 mins
BSTAR
-0.00006403
Loading maneuver chart data...
Computing Atmospheric mass density...
Loading historical data...
Loading historical data...
Loading historical data...
Loading historical data...
Loading historical data...
Loading historical data...
Loading historical data...

Documentation

Showing up to 5 results
|